EKRAN 1

导读 | 豆包AI

EKRAN 1卫星是苏联解体后独立国家联合体(CIS)发射的首颗通信卫星,于1976年10月26日08:00成功进入太空。作为EKRAN系列卫星的开篇之作,它主要承担卫星电视转播任务,服务高纬度地区信号覆盖。它是苏联首个采用同步轨道传输电视的卫星系统,推动了偏远地区广播电视普及,为后续通信卫星技术发展积累了关键经验,在航天通信发展中留下重要印记。

Basic Information
目录编号:
9503
目录名称:
EKRAN 1
国际标识:
1976-107A
轨道中心:
EARTH
卫星名称:
EKRAN 1
卫星全名:
--
卫星状态:
在轨 (已飞行18083 天)
发射日期:
1976-10-26 UTC
国别 :
俄罗斯(独联体) (CIS)
星等 :
--
Orbit Information
数据来源 国际轨道数据 AOE轨道数据
星历时间 2026-04-30T20:05:13+0800
9小时前
查看轨道信息
2026-04-30T23:00:00+0800
7小时前
查看轨道信息
半长轴 42177.937km 42177.965km
偏心率 0.0068667 0.0068749
轨道倾角 3.690° 3.689°
近地点辐角 186.690° 186.644°
升交点赤经 270.861° 270.853°
平近点角 26.272° 70.122°
近地点 35510.176km 35509.858km
远地点 36089.424km 36089.798km
周期 1436.772分钟 1436.773分钟
每日圈数 1.002247 1.002246
Detailed Information
使用方式:
暂无
2D Orbit Map
3D Orbit Map
Orbit Altitude Analysis Chart
Orbit Inclination Analysis Chart
Orbit Comprehensive Analysis Chart
View Comprehensive Chart